Location: Newark
(32.0500°N, 131.1833°E)
Time: 21:55:19
(UTC+00:00)

Hubble Space Telescope - Visible Passes

Search period start: 20 September 2020 00:00
Search period end: 30 September 2020 00:00
Orbit: 536 x 540 km, 28.5° (Epoch: 20 September)

Date Brightness Start Highest point End Pass type
(mag) Time Alt. Az. Time Alt. Az. Time Alt. Az.
23 Sep 3.3 19:17:39 12° SSE 19:18:20 12° SSE 19:19:55 10° SE visible
24 Sep 3.1 19:07:44 15° SSE 19:07:44 15° SSE 19:09:55 10° ESE visible
25 Sep 3.1 18:57:47 17° SE 18:57:47 17° SE 18:59:36 10° ESE visible
25 Sep 1.7 20:33:35 10° WSW 20:37:29 41° S 20:41:22 10° E visible
26 Sep 3.2 18:47:47 16° SE 18:47:47 16° SE 18:49:09 10° ESE visible
26 Sep 1.5 20:23:07 12° WSW 20:26:44 45° S 20:30:40 10° E visible
27 Sep 3.5 18:37:45 14° ESE 18:37:45 14° ESE 18:38:35 10° ESE visible
27 Sep 1.3 20:13:05 17° WSW 20:15:59 49° S 20:19:57 10° E visible
28 Sep 3.8 18:27:42 12° ESE 18:27:42 12° ESE 18:27:59 10° ESE visible
28 Sep 1.2 20:03:02 24° WSW 20:05:14 51° S 20:09:14 10° ESE visible
29 Sep 1.1 19:52:58 32° WSW 19:54:29 52° S 19:58:30 10° ESE visible
